Total_Precipitation_Accumulation
0.00 0.00 0.00 0.00 0.00 0.00 0.00 0.00 0.00 0.00 0.00 0.00 0.00 0.00 0.00 0.00 0.00 0.00 0.00 0.00 0.00 0.00 0.00 0.00 0.00 0.00 0.01 0.00 0.00 0.00 0.00 0.00 0.00 0.00 0.00 0.01 0.00 0.00 0.00 0.00 0.00 0.00 0.00 0.00 0.00 0.00 0.00 0.00 0.00 0.05 0.03 0.03 0.02 0.01 0.02 0.01 0.03 0.03 0.02 0.02 0.03 0.02 0.03 0.05 0.06 0.01 0.00 0.00 0.01 0.00 0.01 0.01 0.00 0.00 0.01 0.01 0.00 0.01 0.00 0.00 0.00 0.01 0.00 0.00 0.00
0.00 0.00 0.00 0.00 0.00 0.00 0.00 0.00 0.00 0.00 0.00 0.00 0.00 0.00 0.00 0.01 0.00 0.00 0.00 0.00 0.00 0.00 0.00 0.00 0.00 0.00 0.00 0.00 0.01 0.03 0.00 0.00 0.00 0.01 0.01 0.00 0.00 0.00 0.00 0.00 0.00 0.00 0.00 0.00 0.00 0.00 0.01 0.00 0.00 0.00 0.02 0.03 0.03 0.03 0.03 0.02 0.01 0.01 0.02 0.02 0.01 0.02 0.02 0.04 0.04 0.02 0.00 0.01 0.00 0.01 0.01 0.01 0.01 0.00 0.01 0.02 0.01 0.00 0.01 0.00 0.00 0.00 0.00 0.00 0.00
0.00 0.00 0.00 0.00 0.00 0.00 0.00 0.00 0.01 0.00 0.00 0.00 0.00 0.01 0.01 0.02 0.00 0.00 0.00 0.00 0.01 0.00 0.00 0.00 0.00 0.00 0.00 0.02 0.01 0.00 0.01 0.01 0.00 0.00 0.00 0.00 0.00 0.00 0.00 0.00 0.00 0.00 0.00 0.00 0.00 0.00 0.00 0.00 0.00 0.01 0.01 0.02 0.01 0.01 0.01 0.00 0.01 0.01 0.01 0.01 0.01 0.01 0.02 0.02 0.05 0.05 0.02 0.00 0.00 0.01 0.01 0.02 0.02 0.01 0.01 0.01 0.00 0.01 0.00 0.01 0.01 0.01 0.00 0.01 0.01
0.00 0.00 0.00 0.00 0.00 0.00 0.00 0.00 0.00 0.00 0.00 0.00 0.00 0.02 0.01 0.00 0.00 0.02 0.01 0.00 0.02 0.00 0.00 0.00 0.00 0.00 0.00 0.01 0.00 0.00 0.00 0.00 0.00 0.00 0.00 0.00 0.00 0.00 0.00 0.00 0.00 0.00 0.00 0.00 0.00 0.00 0.00 0.00 0.00 0.00 0.00 0.00 0.01 0.01 0.01 0.00 0.01 0.01 0.01 0.01 0.02 0.00 0.00 0.05 0.02 0.07 0.04 0.06 0.01 0.01 0.01 0.03 0.02 0.01 0.01 0.00 0.00 0.00 0.01 0.01 0.01 0.01 0.02 0.02 0.02
0.00 0.00 0.00 0.00 0.00 0.00 0.00 0.01 0.03 0.04 0.01 0.00 0.01 0.03 0.03 0.00 0.01 0.03 0.01 0.03 0.01 0.01 0.00 0.02 0.01 0.02 0.03 0.01 0.00 0.00 0.00 0.00 0.01 0.00 0.00 0.00 0.00 0.00 0.00 0.00 0.00 0.00 0.00 0.00 0.00 0.00 0.00 0.00 0.00 0.00 0.00 0.01 0.01 0.01 0.00 0.01 0.01 0.02 0.02 0.04 0.04 0.02 0.02 0.02 0.01 0.02 0.07 0.13 0.04 0.02 0.03 0.02 0.02 0.01 0.01 0.02 0.02 0.02 0.01 0.01 0.02 0.02 0.01 0.02 0.01
0.00 0.00 0.00 0.00 0.00 0.00 0.02 0.00 0.13 0.09 0.03 0.03 0.09 0.03 0.01 0.01 0.01 0.03 0.01 0.01 0.00 0.01 0.00 0.00 0.00 0.00 0.00 0.00 0.00 0.02 0.00 0.00 0.00 0.00 0.00 0.00 0.00 0.00 0.00 0.00 0.00 0.00 0.00 0.00 0.00 0.00 0.00 0.00 0.01 0.01 0.01 0.01 0.01 0.00 0.00 0.00 0.00 0.01 0.02 0.04 0.02 0.05 0.06 0.02 0.03 0.07 0.10 0.07 0.09 0.08 0.03 0.03 0.05 0.01 0.01 0.01 0.03 0.02 0.02 0.01 0.01 0.02 0.02 0.02 0.02
0.00 0.00 0.00 0.00 0.00 0.00 0.00 0.16 0.31 0.10 0.06 0.06 0.15 0.15 0.09 0.02 0.02 0.02 0.01 0.02 0.01 0.01 0.00 0.00 0.00 0.00 0.00 0.00 0.01 0.00 0.00 0.00 0.00 0.00 0.00 0.00 0.00 0.00 0.01 0.00 0.00 0.00 0.00 0.00 0.00 0.00 0.01 0.03 0.03 0.02 0.02 0.01 0.01 0.00 0.00 0.00 0.01 0.01 0.02 0.01 0.01 0.02 0.04 0.06 0.04 0.06 0.06 0.06 0.07 0.06 0.03 0.02 0.04 0.05 0.02 0.01 0.02 0.02 0.02 0.02 0.03 0.03 0.02 0.02 0.01
0.00 0.00 0.00 0.00 0.00 0.03 0.01 0.26 0.51 0.24 0.09 0.24 0.15 0.14 0.09 0.03 0.00 0.02 0.02 0.01 0.01 0.01 0.01 0.01 0.01 0.01 0.00 0.00 0.00 0.00 0.00 0.00 0.01 0.01 0.00 0.00 0.00 0.00 0.00 0.00 0.00 0.00 0.01 0.01 0.02 0.02 0.04 0.03 0.02 0.02 0.02 0.02 0.03 0.01 0.00 0.01 0.01 0.01 0.01 0.04 0.03 0.04 0.04 0.04 0.07 0.06 0.05 0.04 0.06 0.06 0.05 0.03 0.02 0.02 0.03 0.03 0.03 0.02 0.03 0.08 0.10 0.04 0.02 0.01 0.01
0.00 0.00 0.00 0.00 0.00 0.01 0.21 0.31 0.42 0.38 0.83 1.10 0.79 0.35 0.06 0.04 0.01 0.01 0.01 0.02 0.04 0.03 0.04 0.03 0.00 0.00 0.02 0.04 0.01 0.01 0.02 0.02 0.01 0.03 0.01 0.00 0.00 0.00 0.00 0.03 0.00 0.01 0.02 0.03 0.03 0.03 0.03 0.01 0.01 0.01 0.00 0.01 0.03 0.01 0.02 0.00 0.03 0.01 0.00 0.01 0.01 0.02 0.05 0.04 0.06 0.06 0.06 0.07 0.06 0.05 0.08 0.03 0.02 0.02 0.02 0.03 0.04 0.07 0.18 0.07 0.05 0.02 0.02 0.03 0.02
0.00 0.00 0.00 0.01 0.03 0.05 0.25 0.58 0.33 0.67 0.74 1.95 1.58 0.80 0.09 0.03 0.02 0.06 0.09 0.08 0.05 0.02 0.01 0.01 0.01 0.01 0.01 0.02 0.02 0.03 0.03 0.02 0.10 0.06 0.01 0.02 0.02 0.02 0.03 0.03 0.04 0.05 0.05 0.05 0.04 0.03 0.03 0.01 0.04 0.03 0.02 0.03 0.03 0.03 0.03 0.01 0.01 0.00 0.00 0.01 0.02 0.02 0.03 0.07 0.07 0.07 0.09 0.09 0.15 0.05 0.07 0.06 0.04 0.03 0.04 0.05 0.06 0.07 0.05 0.04 0.07 0.03 0.02 0.06 0.05
0.00 0.00 0.00 0.02 0.05 0.01 0.19 0.54 0.49 0.66 0.82 2.03 1.38 1.08 0.34 0.12 0.07 0.03 0.03 0.02 0.03 0.02 0.02 0.02 0.04 0.04 0.04 0.05 0.04 0.04 0.02 0.02 0.02 0.02 0.02 0.03 0.06 0.10 0.06 0.05 0.06 0.05 0.04 0.06 0.06 0.09 0.03 0.10 0.17 0.06 0.04 0.05 0.17 0.16 0.07 0.16 0.08 0.09 0.09 0.08 0.08 0.06 0.05 0.04 0.03 0.03 0.08 0.05 0.06 0.06 0.06 0.07 0.02 0.02 0.04 0.03 0.03 0.05 0.09 0.05 0.09 0.11 0.13 0.14 0.24
0.00 0.00 0.00 0.02 0.15 0.26 0.08 0.77 0.62 0.38 1.20 2.82 2.55 0.84 0.24 0.06 0.04 0.05 0.04 0.03 0.08 0.08 0.04 0.05 0.05 0.06 0.06 0.05 0.05 0.12 0.13 0.05 0.04 0.06 0.07 0.12 0.07 0.05 0.07 0.05 0.04 0.03 0.07 0.10 0.12 0.14 0.26 0.08 0.05 0.21 0.06 0.10 0.25 0.42 0.26 0.12 0.11 0.12 0.11 0.09 0.06 0.04 0.03 0.05 0.09 0.12 0.03 0.04 0.05 0.03 0.05 0.08 0.05 0.04 0.04 0.04 0.09 0.08 0.04 0.07 0.08 0.11 0.10 0.16 0.10
0.00 0.00 0.00 0.01 0.06 0.11 0.90 0.92 0.56 0.32 0.72 2.26 1.39 0.73 0.56 0.39 0.22 0.21 0.09 0.10 0.21 0.10 0.08 0.08 0.07 0.10 0.13 0.15 0.18 0.13 0.08 0.11 0.09 0.11 0.10 0.08 0.06 0.07 0.04 0.05 0.06 0.07 0.22 0.31 0.32 0.35 0.30 0.17 0.43 0.24 0.25 0.44 0.56 0.21 0.20 0.23 0.19 0.13 0.14 0.14 0.11 0.10 0.09 0.07 0.06 0.05 0.08 0.08 0.14 0.07 0.05 0.06 0.10 0.11 0.06 0.08 0.04 0.10 0.09 0.14 0.10 0.11 0.09 0.15 0.06
0.00 0.03 0.01 0.02 0.20 0.47 0.73 0.48 0.23 1.21 2.16 1.78 1.11 0.71 0.39 0.20 0.31 0.31 0.30 0.19 0.10 0.20 0.08 0.14 0.16 0.18 0.21 0.16 0.15 0.18 0.19 0.17 0.12 0.08 0.06 0.07 0.08 0.03 0.07 0.05 0.05 0.14 0.14 0.09 0.15 0.12 0.11 0.51 0.53 0.43 0.53 0.38 0.49 0.17 0.20 0.33 0.31 0.41 0.38 0.27 0.20 0.15 0.10 0.07 0.05 0.03 0.11 0.55 0.13 0.09 0.05 0.04 0.09 0.09 0.05 0.05 0.11 0.09 0.13 0.16 0.10 0.09 0.08 0.07 0.03
0.00 0.00 0.04 0.06 0.25 0.29 0.11 0.04 0.70 2.13 1.21 0.99 0.62 0.60 0.77 0.37 0.28 0.34 0.55 0.42 0.19 0.11 0.13 0.22 0.20 0.33 0.27 0.20 0.29 0.37 0.20 0.11 0.12 0.12 0.11 0.12 0.10 0.09 0.11 0.21 0.11 0.07 0.13 0.17 0.09 0.11 0.21 0.27 0.48 0.48 0.38 0.33 0.43 0.27 0.32 0.47 0.43 0.20 0.17 0.11 0.15 0.12 0.14 0.08 0.09 0.14 0.10 0.11 0.18 0.09 0.12 0.06 0.06 0.04 0.03 0.02 0.04 0.05 0.09 0.13 0.11 0.08 0.05 0.02 0.03
0.01 0.07 0.20 0.32 0.17 0.23 0.27 0.55 0.95 1.15 1.18 0.75 0.54 0.42 0.27 0.35 0.47 0.42 0.50 0.46 0.38 0.31 0.44 0.30 0.32 0.31 0.31 0.24 0.20 0.12 0.09 0.09 0.46 0.45 0.08 0.02 0.06 0.25 0.17 0.08 0.11 0.07 0.07 0.11 0.12 0.25 0.28 0.33 0.44 0.40 0.24 0.49 0.26 0.13 0.13 0.14 0.19 0.24 0.09 0.10 0.07 0.08 0.06 0.03 0.02 0.02 0.05 0.05 0.06 0.02 0.01 0.02 0.00 0.01 0.02 0.03 0.03 0.06 0.11 0.14 0.06 0.07 0.08 0.08 0.07
0.00 0.09 0.35 0.28 0.45 0.51 0.70 0.84 0.86 0.85 1.10 0.58 0.44 0.43 0.61 0.57 0.46 0.40 0.39 0.52 0.87 0.61 0.37 0.38 0.36 0.25 0.18 0.13 0.08 0.09 0.10 0.08 0.05 0.11 0.50 0.10 0.04 0.11 0.11 0.08 0.16 0.11 0.09 0.11 0.34 0.26 0.17 0.14 0.15 0.30 0.26 0.19 0.14 0.08 0.08 0.06 0.07 0.11 0.11 0.05 0.03 0.03 0.01 0.04 0.02 0.00 0.02 0.01 0.02 0.00 0.00 0.00 0.00 0.01 0.03 0.04 0.19 0.19 0.17 0.20 0.10 0.04 0.10 0.13 0.06
0.05 0.14 0.41 0.46 0.58 0.74 0.90 0.78 0.69 0.64 0.58 0.48 0.45 0.44 0.62 0.61 0.61 0.47 0.70 1.22 0.63 0.50 0.62 0.33 0.19 0.13 0.22 0.09 0.19 0.06 0.11 0.04 0.02 0.03 0.06 0.12 0.13 0.17 0.14 0.14 0.17 0.22 0.26 0.35 0.35 0.31 0.21 0.18 0.17 0.31 0.32 0.32 0.13 0.08 0.08 0.07 0.03 0.03 0.04 0.10 0.12 0.03 0.02 0.01 0.02 0.02 0.00 0.00 0.00 0.00 0.00 0.00 0.00 0.01 0.02 0.03 0.04 0.10 0.21 0.35 0.16 0.16 0.22 0.12 0.13
0.41 0.46 0.38 0.16 0.72 0.94 0.87 0.76 0.51 0.52 0.71 0.76 0.68 0.69 0.94 0.88 0.69 0.86 0.67 0.47 0.36 0.36 0.28 0.22 0.18 0.28 0.31 0.32 0.12 0.13 0.17 0.07 0.06 0.06 0.06 0.07 0.13 0.22 0.18 0.19 0.21 0.20 0.43 0.37 0.20 0.20 0.46 0.17 0.18 0.25 0.21 0.17 0.14 0.11 0.10 0.08 0.08 0.06 0.03 0.02 0.02 0.01 0.02 0.02 0.01 0.00 0.00 0.00 0.00 0.00 0.00 0.00 0.01 0.01 0.02 0.01 0.01 0.04 0.12 0.28 0.28 0.31 0.30 0.19 0.12
0.39 0.07 0.27 0.94 0.89 1.65 0.98 0.57 0.60 0.51 0.64 0.79 1.12 1.19 1.13 1.13 0.92 0.58 0.28 0.16 0.08 0.07 0.05 0.04 0.15 0.22 0.13 0.19 0.15 0.12 0.12 0.11 0.08 0.08 0.16 0.10 0.12 0.31 0.22 0.28 0.20 0.24 0.37 0.27 0.18 0.30 0.34 0.47 0.14 0.11 0.13 0.11 0.10 0.07 0.05 0.03 0.02 0.01 0.01 0.02 0.04 0.01 0.01 0.00 0.00 0.00 0.00 0.00 0.00 0.00 0.01 0.00 0.00 0.00 0.00 0.00 0.01 0.03 0.12 0.19 0.23 0.29 0.33 0.24 0.17
0.20 0.33 0.27 0.41 0.71 1.82 1.29 0.72 0.69 0.93 0.93 1.05 0.96 0.90 0.93 0.79 0.28 0.12 0.09 0.09 0.11 0.36 0.29 0.10 0.10 0.30 0.37 0.76 0.59 0.35 0.34 0.45 0.39 0.28 0.32 0.32 0.21 0.19 0.23 0.17 0.34 0.34 0.40 0.19 0.22 0.30 0.29 0.31 0.35 0.21 0.08 0.03 0.04 0.03 0.02 0.01 0.00 0.01 0.02 0.01 0.01 0.01 0.00 0.00 0.00 0.00 0.01 0.02 0.01 0.01 0.00 0.00 0.00 0.00 0.00 0.00 0.02 0.05 0.08 0.08 0.08 0.13 0.24 0.31 0.31
0.19 0.02 0.21 0.48 0.85 1.55 1.41 1.61 0.66 0.51 0.25 0.18 0.12 0.09 0.07 0.04 0.06 0.18 0.19 0.10 0.16 0.18 0.24 0.59 0.65 0.72 0.45 0.38 0.28 0.42 0.32 0.14 0.26 0.20 0.21 0.18 0.18 0.14 0.17 0.15 0.10 0.11 0.12 0.16 0.19 0.18 0.31 0.27 0.17 0.08 0.08 0.02 0.02 0.01 0.01 0.01 0.01 0.00 0.01 0.00 0.00 0.00 0.00 0.00 0.00 0.01 0.01 0.00 0.01 0.01 0.01 0.01 0.00 0.00 0.01 0.01 0.03 0.06 0.07 0.06 0.06 0.06 0.08 0.13 0.38
0.03 0.06 0.28 0.59 1.14 0.89 1.06 0.39 0.17 0.12 0.05 0.04 0.03 0.02 0.01 0.02 0.05 0.02 0.04 0.26 0.35 0.25 0.25 0.18 0.23 0.45 0.35 0.12 0.08 0.09 0.23 0.17 0.09 0.21 0.27 0.21 0.16 0.13 0.10 0.09 0.04 0.06 0.11 0.12 0.08 0.11 0.18 0.12 0.05 0.02 0.01 0.01 0.01 0.01 0.01 0.01 0.01 0.01 0.01 0.00 0.00 0.00 0.00 0.00 0.00 0.00 0.00 0.00 0.01 0.01 0.01 0.00 0.00 0.01 0.02 0.04 0.06 0.08 0.09 0.10 0.11 0.11 0.10 0.09 0.13
0.60 0.59 0.26 0.35 0.31 0.80 0.85 0.17 0.04 0.03 0.03 0.04 0.05 0.09 0.19 0.17 0.15 0.39 0.08 0.09 0.06 0.07 0.05 0.06 0.11 0.08 0.18 0.29 0.24 0.17 0.21 0.27 0.10 0.08 0.14 0.12 0.08 0.05 0.04 0.04 0.04 0.12 0.05 0.08 0.10 0.21 0.09 0.06 0.03 0.02 0.01 0.02 0.02 0.02 0.01 0.01 0.00 0.01 0.01 0.00 0.00 0.00 0.00 0.00 0.00 0.00 0.00 0.00 0.01 0.01 0.01 0.00 0.00 0.01 0.04 0.06 0.07 0.11 0.14 0.19 0.24 0.23 0.22 0.22 0.19
0.11 0.02 0.01 0.15 0.20 0.52 0.36 0.34 0.41 0.18 0.27 0.15 0.07 0.05 0.07 0.11 0.04 0.04 0.09 0.22 0.17 0.11 0.09 0.09 0.19 0.21 0.25 0.75 0.49 0.18 0.22 0.14 0.09 0.04 0.03 0.02 0.02 0.06 0.10 0.06 0.02 0.02 0.02 0.05 0.06 0.04 0.02 0.03 0.03 0.02 0.02 0.03 0.02 0.02 0.02 0.02 0.01 0.01 0.01 0.01 0.00 0.00 0.00 0.00 0.00 0.00 0.00 0.00 0.00 0.01 0.01 0.00 0.01 0.03 0.05 0.11 0.06 0.14 0.18 0.18 0.21 0.25 0.29 0.29 0.26
0.23 0.42 0.49 0.36 0.33 0.15 0.17 0.30 0.22 0.07 0.07 0.09 0.05 0.04 0.08 0.05 0.17 0.17 0.45 0.70 0.75 0.93 0.82 0.70 0.64 0.34 0.23 0.27 0.14 0.08 0.06 0.06 0.07 0.07 0.07 0.03 0.03 0.02 0.01 0.01 0.01 0.01 0.01 0.03 0.02 0.02 0.02 0.02 0.02 0.03 0.03 0.02 0.01 0.01 0.01 0.01 0.01 0.01 0.01 0.01 0.00 0.00 0.00 0.00 0.00 0.00 0.00 0.00 0.00 0.01 0.01 0.01 0.01 0.06 0.08 0.04 0.03 0.07 0.21 0.32 0.29 0.28 0.28 0.22 0.14
0.57 0.39 0.11 0.16 0.20 0.23 0.11 0.14 0.09 0.06 0.17 0.28 0.53 0.62 0.84 0.71 0.64 0.76 0.53 0.66 0.51 0.38 0.27 0.24 0.20 0.15 0.09 0.08 0.10 0.04 0.04 0.04 0.05 0.02 0.01 0.03 0.04 0.02 0.06 0.01 0.01 0.02 0.03 0.04 0.05 0.03 0.02 0.01 0.01 0.01 0.01 0.01 0.01 0.00 0.00 0.01 0.01 0.01 0.00 0.00 0.01 0.01 0.01 0.00 0.00 0.00 0.00 0.00 0.00 0.00 0.00 0.01 0.01 0.06 0.02 0.03 0.04 0.05 0.15 0.19 0.22 0.22 0.23 0.23 0.17
0.34 0.37 0.40 0.42 0.14 0.38 0.38 0.31 0.47 0.54 0.77 0.77 0.69 0.50 0.43 0.33 0.36 0.27 0.32 0.28 0.24 0.17 0.09 0.04 0.04 0.03 0.03 0.04 0.04 0.04 0.03 0.03 0.06 0.07 0.02 0.05 0.01 0.01 0.01 0.02 0.04 0.05 0.05 0.03 0.03 0.03 0.03 0.01 0.01 0.01 0.01 0.01 0.00 0.00 0.00 0.00 0.00 0.00 0.00 0.01 0.02 0.01 0.01 0.00 0.00 0.00 0.00 0.00 0.00 0.00 0.00 0.00 0.01 0.01 0.02 0.04 0.05 0.04 0.07 0.15 0.17 0.16 0.20 0.28 0.22
1.06 1.09 1.20 1.38 1.43 1.19 1.27 1.09 0.91 0.49 0.33 0.44 0.39 0.52 0.39 0.33 0.32 0.33 0.10 0.11 0.04 0.05 0.04 0.07 0.08 0.11 0.21 0.33 0.27 0.24 0.06 0.09 0.04 0.01 0.04 0.01 0.03 0.02 0.01 0.06 0.14 0.22 0.21 0.11 0.09 0.03 0.03 0.02 0.02 0.02 0.02 0.02 0.01 0.02 0.00 0.02 0.00 0.00 0.01 0.01 0.01 0.02 0.02 0.00 0.00 0.00 0.00 0.00 0.00 0.00 0.00 0.00 0.00 0.01 0.01 0.03 0.05 0.05 0.06 0.16 0.17 0.29 0.19 0.25 0.36
1.09 1.13 1.12 1.08 1.01 0.94 0.96 0.63 0.51 0.47 0.32 0.24 0.31 0.12 0.05 0.03 0.05 0.05 0.21 0.06 0.15 0.27 0.49 1.06 1.25 1.45 1.50 1.52 1.15 1.00 0.53 0.36 0.12 0.04 0.04 0.02 0.08 0.31 0.44 0.52 0.50 0.57 0.44 0.34 0.18 0.13 0.05 0.05 0.05 0.07 0.05 0.02 0.02 0.01 0.02 0.02 0.03 0.01 0.01 0.03 0.01 0.01 0.01 0.00 0.00 0.00 0.00 0.00 0.00 0.00 0.00 0.00 0.00 0.00 0.01 0.02 0.04 0.05 0.06 0.09 0.11 0.14 0.15 0.47 0.23
1.00 0.78 1.08 0.85 0.67 0.59 0.69 0.75 0.67 0.51 0.43 0.14 0.10 0.23 0.07 0.03 0.58 1.05 1.45 1.08 0.65 0.75 0.95 1.07 0.85 0.53 0.43 0.17 0.12 0.16 0.08 0.17 0.35 0.66 0.71 0.72 0.61 0.54 0.55 0.50 0.35 0.10 0.07 0.14 0.12 0.06 0.10 0.13 0.05 0.03 0.02 0.02 0.04 0.10 0.04 0.00 0.00 0.00 0.05 0.01 0.00 0.03 0.02 0.03 0.02 0.00 0.00 0.00 0.00 0.00 0.00 0.00 0.00 0.00 0.00 0.01 0.03 0.05 0.05 0.07 0.07 0.06 0.11 0.18 0.36
1.88 1.14 1.11 1.14 1.01 0.82 0.55 0.96 0.94 0.68 0.60 0.94 0.48 1.28 0.78 0.62 0.49 0.98 0.52 0.70 0.93 0.76 0.12 0.26 0.28 0.47 0.51 0.69 0.62 0.80 0.97 1.28 1.22 1.26 1.12 0.82 1.71 1.62 1.50 1.06 0.68 0.14 0.15 0.18 0.22 0.21 0.11 0.05 0.06 0.08 0.05 0.11 0.04 0.03 0.02 0.02 0.03 0.02 0.04 0.10 0.02 0.01 0.02 0.00 0.00 0.00 0.00 0.00 0.00 0.00 0.00 0.00 0.00 0.00 0.00 0.00 0.01 0.04 0.04 0.05 0.08 0.06 0.09 0.10 0.21
1.20 1.26 0.75 0.89 1.24 1.32 1.22 1.06 0.87 0.61 0.64 0.39 0.56 0.91 0.93 0.52 0.33 0.26 0.26 0.10 0.29 0.38 0.39 0.20 0.39 0.32 0.13 0.05 0.06 0.26 0.33 0.38 0.23 0.23 0.28 0.13 0.13 0.20 0.88 1.21 1.36 1.39 0.61 0.34 0.34 0.33 0.08 0.04 0.07 0.08 0.04 0.03 0.02 0.04 0.01 0.01 0.02 0.01 0.00 0.01 0.01 0.00 0.00 0.00 0.00 0.00 0.00 0.00 0.00 0.00 0.00 0.00 0.00 0.00 0.00 0.00 0.00 0.02 0.04 0.05 0.07 0.07 0.07 0.08 0.08
1.02 0.81 1.23 1.42 1.00 0.89 0.64 0.72 1.11 1.22 1.10 0.71 0.37 0.33 0.67 0.88 0.70 0.34 0.26 0.17 0.26 0.25 0.43 0.98 0.92 0.69 1.23 0.90 0.87 0.85 0.63 0.68 0.54 0.29 0.08 0.11 0.19 0.26 0.15 0.16 0.33 0.59 1.23 2.14 1.67 1.08 0.55 0.23 0.11 0.07 0.05 0.04 0.03 0.03 0.02 0.02 0.01 0.01 0.05 0.03 0.04 0.00 0.00 0.03 0.00 0.00 0.00 0.00 0.00 0.00 0.00 0.00 0.00 0.00 0.00 0.00 0.00 0.01 0.03 0.06 0.06 0.06 0.07 0.11 0.13
0.87 1.32 1.35 1.77 1.62 1.44 2.07 2.09 1.84 1.85 1.90 1.96 1.86 1.45 0.92 0.73 0.77 0.79 0.76 0.63 0.54 0.27 0.44 0.35 0.94 0.85 0.57 1.14 1.48 1.32 1.40 1.21 1.05 0.82 0.46 0.18 0.21 0.31 0.50 0.64 0.77 1.71 1.84 1.42 1.74 1.73 1.55 1.20 0.50 0.12 0.08 0.07 0.05 0.05 0.04 0.05 0.04 0.13 0.05 0.04 0.09 0.02 0.02 0.04 0.00 0.00 0.00 0.00 0.00 0.00 0.00 0.00 0.00 0.00 0.00 0.00 0.00 0.00 0.01 0.04 0.05 0.07 0.10 0.11 0.11
0.21 0.23 0.49 0.42 0.48 0.57 0.61 0.80 1.12 1.78 2.38 2.39 1.99 1.74 1.63 1.55 1.08 0.83 1.35 1.72 1.08 0.99 1.04 1.04 0.98 1.14 1.30 0.73 0.42 0.46 0.56 0.84 1.37 1.42 1.29 1.25 1.01 0.82 1.61 1.53 1.52 1.43 1.35 0.96 1.13 0.87 0.47 0.47 0.42 0.67 0.64 0.23 0.20 0.13 0.09 0.08 0.06 0.10 0.03 0.01 0.01 0.00 0.01 0.00 0.00 0.02 0.00 0.00 0.00 0.00 0.00 0.00 0.00 0.00 0.00 0.00 0.00 0.00 0.00 0.01 0.02 0.05 0.07 0.10 0.13
0.24 0.31 0.33 0.37 0.48 0.44 0.35 0.34 0.65 1.15 1.17 0.97 1.19 2.42 2.61 1.89 1.66 1.50 1.45 1.34 1.71 1.49 1.03 0.99 1.06 1.07 0.95 1.27 1.57 1.39 0.90 0.56 0.52 0.66 0.91 1.34 1.71 1.60 1.80 1.73 1.42 1.42 1.11 0.42 0.44 0.59 0.58 0.68 0.68 0.65 0.39 0.35 0.26 0.19 0.09 0.05 0.07 0.03 0.02 0.02 0.04 0.01 0.02 0.06 0.02 0.01 0.00 0.00 0.00 0.00 0.00 0.00 0.00 0.00 0.00 0.00 0.00 0.00 0.00 0.00 0.01 0.02 0.04 0.07 0.10
0.47 0.83 0.46 0.48 0.75 0.59 0.45 0.33 0.28 0.28 0.35 0.44 0.45 0.55 0.75 1.84 2.38 1.76 1.59 1.67 1.54 1.70 1.78 1.70 1.16 1.20 1.18 1.22 0.74 1.03 1.68 1.25 1.27 1.15 1.33 1.41 1.44 1.29 1.14 1.50 1.31 1.10 1.02 0.78 0.77 0.72 0.79 0.86 0.54 0.61 0.57 0.47 0.33 0.27 0.18 0.05 0.06 0.04 0.06 0.01 0.03 0.00 0.03 0.00 0.02 0.01 0.00 0.00 0.00 0.00 0.00 0.00 0.00 0.00 0.00 0.00 0.00 0.00 0.00 0.00 0.00 0.01 0.01 0.03 0.06
0.08 0.16 0.43 0.45 0.48 0.24 0.29 0.32 0.32 0.28 0.30 0.36 0.38 0.32 0.42 0.61 0.82 1.32 2.27 2.26 1.94 1.90 1.90 1.82 1.55 1.43 1.31 1.15 1.66 1.60 0.96 1.25 1.75 1.69 0.98 0.77 1.01 1.21 0.95 1.06 1.05 1.03 0.80 0.81 1.00 0.90 0.82 0.62 0.58 0.46 0.50 0.28 0.14 0.15 0.07 0.08 0.07 0.03 0.02 0.01 0.00 0.00 0.00 0.00 0.00 0.00 0.00 0.00 0.00 0.00 0.00 0.00 0.00 0.00 0.00 0.00 0.00 0.00 0.00 0.00 0.00 0.00 0.00 0.01 0.03
0.09 0.10 0.06 0.07 0.11 0.36 0.45 0.17 0.20 0.24 0.24 0.23 0.25 0.25 0.28 0.32 0.45 0.63 0.93 1.16 1.66 2.55 2.08 1.98 2.60 1.81 1.41 1.30 1.15 1.55 1.75 1.11 0.84 1.24 2.19 2.52 1.34 0.89 1.22 1.00 0.68 0.67 0.63 0.62 0.69 0.73 0.60 0.53 0.37 0.51 0.35 0.37 0.29 0.18 0.11 0.13 0.16 0.04 0.06 0.10 0.03 0.01 0.02 0.03 0.04 0.00 0.00 0.00 0.00 0.00 0.00 0.00 0.00 0.00 0.00 0.00 0.00 0.00 0.00 0.00 0.00 0.00 0.00 0.02 0.01
0.06 0.07 0.04 0.03 0.06 0.08 0.11 0.08 0.08 0.11 0.14 0.14 0.13 0.12 0.14 0.16 0.24 0.34 0.49 0.79 1.02 1.04 1.23 1.27 1.66 2.47 2.55 2.20 1.96 2.03 2.20 2.24 1.47 1.04 1.63 1.81 1.94 1.88 1.33 1.11 1.52 1.40 0.72 0.61 0.63 0.58 0.66 0.56 0.41 0.34 0.24 0.17 0.18 0.11 0.10 0.10 0.04 0.04 0.05 0.04 0.01 0.01 0.01 0.00 0.00 0.00 0.00 0.00 0.00 0.00 0.00 0.00 0.00 0.00 0.00 0.00 0.00 0.00 0.00 0.00 0.00 0.00 0.00 0.02 0.00
0.11 0.10 0.07 0.04 0.03 0.02 0.03 0.04 0.05 0.08 0.07 0.08 0.08 0.07 0.08 0.11 0.36 0.34 0.46 0.39 0.50 1.01 1.31 1.17 1.23 1.30 1.19 1.15 1.12 1.14 1.20 1.31 1.56 1.15 0.96 1.02 1.06 1.20 1.47 1.42 1.09 1.58 1.71 0.84 0.48 0.43 0.45 0.37 0.25 0.29 0.20 0.21 0.27 0.14 0.05 0.05 0.02 0.02 0.01 0.00 0.00 0.00 0.00 0.00 0.00 0.00 0.00 0.00 0.00 0.00 0.00 0.00 0.00 0.00 0.00 0.00 0.00 0.00 0.00 0.00 0.00 0.00 0.00 0.00 0.01
0.13 0.10 0.11 0.12 0.13 0.18 0.14 0.05 0.07 0.06 0.03 0.02 0.10 0.18 0.63 0.43 0.22 0.21 0.15 0.23 0.63 0.54 0.39 0.67 0.98 1.18 0.97 0.93 0.94 0.99 1.04 1.22 1.30 1.18 1.17 1.33 1.39 1.38 1.24 0.93 0.83 0.69 0.60 0.58 0.47 0.38 0.27 0.20 0.15 0.16 0.17 0.12 0.06 0.04 0.05 0.02 0.01 0.00 0.00 0.00 0.00 0.00 0.00 0.00 0.00 0.00 0.00 0.00 0.00 0.00 0.00 0.00 0.00 0.00 0.00 0.00 0.00 0.00 0.00 0.00 0.00 0.00 0.00 0.00 0.00
0.09 0.10 0.11 0.06 0.08 0.07 0.08 0.07 0.11 0.07 0.07 0.21 0.40 0.57 0.19 0.11 0.10 0.17 0.10 0.09 0.05 0.06 0.10 0.19 0.25 0.36 0.51 0.63 0.64 0.65 0.66 0.63 0.63 0.81 0.88 0.96 0.98 0.93 0.98 1.09 0.82 0.72 0.58 0.47 0.42 0.38 0.34 0.22 0.16 0.11 0.08 0.05 0.03 0.01 0.01 0.00 0.00 0.00 0.00 0.00 0.00 0.00 0.00 0.00 0.00 0.00 0.00 0.00 0.00 0.00 0.00 0.00 0.00 0.00 0.00 0.00 0.00 0.00 0.00 0.00 0.00 0.00 0.00 0.00 0.00
0.79 0.46 0.33 0.29 0.17 0.17 0.20 0.15 0.26 0.35 0.24 0.78 0.14 0.12 0.10 0.08 0.05 0.03 0.04 0.02 0.01 0.01 0.02 0.04 0.09 0.11 0.15 0.19 0.27 0.33 0.36 0.37 0.38 0.37 0.40 0.40 0.39 0.43 0.48 0.51 0.57 0.59 0.52 0.43 0.34 0.26 0.21 0.17 0.12 0.09 0.06 0.03 0.02 0.01 0.01 0.00 0.00 0.00 0.00 0.00 0.00 0.00 0.00 0.00 0.00 0.00 0.00 0.00 0.00 0.00 0.00 0.00 0.00 0.00 0.00 0.00 0.00 0.00 0.00 0.00 0.00 0.00 0.00 0.00 0.00
0.74 0.90 0.86 0.56 0.33 0.25 0.17 0.17 0.07 0.12 0.16 0.09 0.06 0.04 0.01 0.02 0.02 0.02 0.05 0.02 0.04 0.02 0.05 0.04 0.04 0.04 0.06 0.09 0.07 0.08 0.12 0.15 0.18 0.21 0.19 0.18 0.18 0.18 0.20 0.24 0.27 0.30 0.30 0.32 0.28 0.22 0.16 0.11 0.07 0.04 0.03 0.02 0.01 0.01 0.00 0.00 0.00 0.00 0.00 0.00 0.00 0.00 0.00 0.00 0.00 0.00 0.00 0.00 0.00 0.00 0.00 0.00 0.00 0.00 0.00 0.00 0.00 0.00 0.00 0.00 0.00 0.00 0.00 0.00 0.00
0.17 0.23 0.74 1.01 0.72 0.65 0.62 0.34 0.21 0.16 0.32 0.16 0.04 0.10 0.05 0.06 0.02 0.02 0.01 0.01 0.19 0.37 0.01 0.07 0.03 0.03 0.05 0.07 0.07 0.06 0.04 0.05 0.08 0.09 0.10 0.10 0.09 0.07 0.05 0.04 0.04 0.05 0.05 0.06 0.06 0.07 0.06 0.05 0.04 0.03 0.02 0.01 0.01 0.00 0.00 0.00 0.00 0.00 0.00 0.00 0.00 0.00 0.00 0.00 0.00 0.00 0.00 0.00 0.00 0.00 0.00 0.00 0.00 0.00 0.00 0.00 0.00 0.00 0.00 0.00 0.00 0.00 0.00 0.00 0.00
0.20 0.14 0.26 0.45 0.69 0.66 0.53 0.32 0.36 0.26 0.15 0.08 0.29 0.21 0.08 0.16 0.14 0.07 0.21 0.06 0.04 0.10 0.28 0.27 0.11 0.02 0.02 0.02 0.02 0.03 0.03 0.05 0.04 0.02 0.04 0.05 0.04 0.02 0.02 0.02 0.01 0.01 0.01 0.01 0.01 0.01 0.01 0.01 0.01 0.00 0.00 0.00 0.00 0.00 0.00 0.00 0.00 0.00 0.00 0.00 0.00 0.00 0.00 0.00 0.00 0.00 0.00 0.00 0.00 0.00 0.00 0.00 0.00 0.00 0.00 0.00 0.00 0.00 0.00 0.00 0.00 0.00 0.00 0.00 0.00
0.40 0.22 0.17 0.15 0.19 0.31 0.31 0.34 0.45 0.38 0.48 0.43 0.68 0.59 0.81 0.67 0.38 0.44 0.98 0.61 0.43 0.44 0.61 0.13 0.36 0.47 0.03 0.06 0.01 0.01 0.03 0.00 0.06 0.03 0.03 0.03 0.01 0.00 0.00 0.00 0.00 0.00 0.00 0.00 0.00 0.00 0.00 0.00 0.00 0.00 0.00 0.00 0.00 0.00 0.00 0.00 0.00 0.00 0.00 0.00 0.00 0.00 0.00 0.00 0.00 0.00 0.00 0.00 0.00 0.00 0.00 0.00 0.00 0.00 0.00 0.00 0.00 0.00 0.00 0.00 0.00 0.00 0.00 0.00 0.00
0.45 0.41 0.41 0.24 0.44 0.49 0.20 0.13 0.23 0.33 0.90 0.85 0.81 0.69 0.60 0.79 0.80 0.68 0.79 1.01 0.79 0.87 0.44 0.65 0.66 0.92 0.57 0.46 0.08 0.02 0.00 0.00 0.04 0.09 0.00 0.00 0.00 0.00 0.00 0.00 0.00 0.00 0.00 0.00 0.00 0.00 0.00 0.00 0.00 0.00 0.00 0.00 0.00 0.00 0.00 0.00 0.00 0.00 0.00 0.00 0.00 0.00 0.00 0.00 0.00 0.00 0.00 0.00 0.00 0.00 0.00 0.00 0.00 0.00 0.00 0.00 0.00 0.00 0.00 0.00 0.00 0.00 0.00 0.00 0.00
0.02 0.07 0.35 0.60 0.54 0.63 0.43 0.55 0.54 0.50 0.40 0.45 0.27 0.28 0.28 0.31 0.29 0.42 0.56 0.45 0.61 0.76 0.73 0.62 0.36 0.42 0.45 0.34 0.70 0.40 0.10 0.03 0.00 0.02 0.01 0.01 0.00 0.00 0.00 0.00 0.00 0.00 0.00 0.00 0.00 0.00 0.00 0.00 0.00 0.00 0.00 0.00 0.00 0.00 0.00 0.00 0.00 0.00 0.00 0.00 0.00 0.00 0.00 0.00 0.00 0.00 0.00 0.00 0.00 0.00 0.00 0.00 0.00 0.00 0.00 0.00 0.00 0.00 0.00 0.00 0.00 0.00 0.00 0.00 0.00